TimeCDT,TemperatureF,Dew PointF,Humidity,Sea Level PressureIn,VisibilityMPH,Wind Direction,Wind SpeedMPH,Gust SpeedMPH,PrecipitationIn,Events,Conditions,WindDirDegrees,DateUTC
12:52 AM,66.9,46.0,47,29.80,10.0,SW,13.8,23.0,N/A,,Clear,230,2013-03-16 05:52:00
1:52 AM,66.0,45.0,47,29.79,10.0,SW,15.0,20.7,N/A,,Clear,220,2013-03-16 06:52:00
2:52 AM,64.9,45.0,48,29.79,10.0,SW,12.7,-,N/A,,Clear,220,2013-03-16 07:52:00
3:52 AM,64.0,44.1,48,29.78,10.0,SW,11.5,21.9,N/A,,Clear,220,2013-03-16 08:52:00
4:52 AM,63.0,44.1,50,29.78,10.0,SW,10.4,-,N/A,,Clear,220,2013-03-16 09:52:00
5:52 AM,62.1,44.1,52,29.78,10.0,SW,10.4,19.6,N/A,,Clear,220,2013-03-16 10:52:00
6:52 AM,61.0,45.0,56,29.80,10.0,SW,11.5,-,N/A,,Clear,230,2013-03-16 11:52:00
7:52 AM,61.0,46.0,58,29.80,10.0,SW,13.8,21.9,N/A,,Clear,230,2013-03-16 12:52:00
8:52 AM,64.0,48.0,56,29.81,10.0,WSW,17.3,25.3,N/A,,Clear,240,2013-03-16 13:52:00
9:52 AM,66.0,48.9,54,29.81,10.0,WSW,16.1,24.2,N/A,,Clear,240,2013-03-16 14:52:00
10:52 AM,70.0,48.9,47,29.81,10.0,WSW,16.1,26.5,N/A,,Clear,240,2013-03-16 15:52:00
11:52 AM,71.1,48.9,45,29.82,10.0,WSW,13.8,23.0,N/A,,Clear,250,2013-03-16 16:52:00
12:52 PM,73.0,48.9,42,29.82,10.0,WNW,17.3,26.5,N/A,,Clear,290,2013-03-16 17:52:00
1:52 PM,73.0,48.9,42,29.83,10.0,West,16.1,25.3,N/A,,Mostly Cloudy,280,2013-03-16 18:52:00
2:52 PM,73.0,50.0,44,29.81,10.0,WNW,12.7,-,N/A,,Mostly Cloudy,300,2013-03-16 19:52:00
3:52 PM,72.0,48.9,44,29.82,10.0,NW,13.8,17.3,N/A,,Mostly Cloudy,310,2013-03-16 20:52:00
4:52 PM,69.1,50.0,51,29.83,10.0,NNW,13.8,-,N/A,,Mostly Cloudy,340,2013-03-16 21:52:00
5:52 PM,62.1,46.9,58,29.87,9.0,North,18.4,-,N/A,,Clear,360,2013-03-16 22:52:00
6:52 PM,57.0,46.0,67,29.88,6.0,North,11.5,-,N/A,,Haze,350,2013-03-16 23:52:00
7:52 PM,54.0,43.0,66,29.93,7.0,North,13.8,-,N/A,,Overcast,360,2013-03-17 00:52:00
8:52 PM,53.1,43.0,69,29.93,7.0,NNE,9.2,-,N/A,,Overcast,20,2013-03-17 01:52:00
9:52 PM,52.0,42.1,69,29.95,7.0,North,8.1,-,N/A,,Overcast,10,2013-03-17 02:52:00
10:52 PM,50.0,41.0,71,29.97,7.0,North,9.2,-,N/A,,Overcast,10,2013-03-17 03:52:00
11:52 PM,48.0,39.9,74,29.96,6.0,NE,4.6,-,N/A,,Haze,40,2013-03-17 04:52:00